This is the latest recevied weather packets stored in our database for station/object G6LTT-13. If no packets are shown the sender has not sent any weather packets the latest 10 day(s).
| Time | Temp. | Humidity | Pressure | Rain* | Wind** | Luminosity | Snow |
|---|---|---|---|---|---|---|---|
| 1787845907 | 23.89° C | 65% | 1035.6 hPa | 0 mm | - | - | - |
| 1787844107 | 23.33° C | 68% | 1035.9 hPa | 0 mm | - | - | - |
| 1787842307 | 23.89° C | 76% | 1035.8 hPa | 0.25 mm | - | - | - |
| 1787840507 | 22.78° C | 78% | 1036.1 hPa | 0.25 mm | - | - | - |
| 1787838707 | 22.22° C | 79% | 1036 hPa | 0 mm | - | - | - |
| 1787836907 | 22.22° C | 77% | 1036.2 hPa | 0 mm | - | - | - |
| 1787835107 | 22.78° C | 77% | 1036.4 hPa | 0 mm | - | - | - |
| 1787833307 | 21.67° C | 82% | 1036.6 hPa | 0 mm | - | - | - |
| 1787831507 | 21.11° C | 84% | 1036.5 hPa | 0 mm | - | - | - |
| 1787829707 | 20° C | 90% | 1036.8 hPa | 0 mm | - | - | - |
| 1787827907 | 19.44° C | 91% | 1036.5 hPa | 0 mm | - | - | - |
| 1787826107 | 18.89° C | 93% | 1036.3 hPa | 0.25 mm | - | - | - |
| 1787824307 | 18.89° C | 95% | 1036.6 hPa | 1.02 mm | - | - | - |
| 1787822507 | 18.33° C | 94% | 1037 hPa | 1.27 mm | - | - | - |
| 1787820707 | 18.33° C | 94% | 1037.3 hPa | 1.27 mm | - | - | - |
| 1787818907 | 18.33° C | 93% | 1037.3 hPa | 0.51 mm | - | - | - |
| 1787817107 | 18.33° C | 95% | 1037.5 hPa | 0.25 mm | - | - | - |
| 1787815307 | 18.33° C | 95% | 1036.8 hPa | 0.51 mm | - | - | - |
| 1787813507 | 18.33° C | 95% | 1036.7 hPa | 1.02 mm | - | - | - |
| 1787811707 | 18.33° C | 94% | 1036.5 hPa | 1.78 mm | - | - | - |
| 1787809907 | 18.33° C | 94% | 1036.1 hPa | 2.29 mm | - | - | - |
| 1787808107 | 18.89° C | 92% | 1036.9 hPa | 1.27 mm | - | - | - |
| 1787806307 | 18.89° C | 89% | 1037 hPa | 0 mm | - | - | - |
| 1787804507 | 18.89° C | 87% | 1037.4 hPa | 0 mm | - | - | - |
| 1787802707 | 18.89° C | 86% | 1036.9 hPa | 0 mm | - | - | - |
* Rain latest hour (hover to see other rain measurements)
** Current wind speed in m/s (hover to see current wind gust speed)